Temperature
30 31 32 32 32 32 32 32 31 32 31 31 32 32 32 31 30 30 29 28 27 26 25 25 24 24 23 22 22 21 21 21 20 20 20 20 19 19 19 19 18 18 18 18
29 31 31 31 32 32 32 32 32 32 32 32 32 31 31 30 30 29 28 28 27 26 25 24 24 23 23 22 22 21 21 21 20 20 20 20 19 19 19 19 18 18 18 17
27 29 30 30 31 32 32 33 32 32 32 32 31 31 30 29 29 28 28 27 26 26 25 24 24 23 23 22 22 21 21 21 20 20 20 20 19 19 19 18 18 18 18 18
27 27 27 30 32 32 32 32 32 32 32 31 30 29 28 28 27 27 27 26 26 25 24 24 23 23 23 22 22 21 21 20 20 20 20 19 19 19 18 18 18 18 18 17
26 26 27 29 31 31 31 30 32 31 31 30 29 28 27 26 26 26 26 25 25 25 24 24 23 23 22 22 21 21 20 20 20 20 19 19 19 19 18 18 18 17 17 17
25 25 26 28 30 30 30 29 30 30 29 29 29 28 26 25 25 25 24 24 24 24 23 23 23 22 22 21 21 20 20 20 20 19 19 19 19 19 18 18 17 17 17 17
25 25 26 28 29 30 28 26 28 28 27 27 26 26 24 24 24 23 23 23 23 23 22 22 22 22 22 21 20 20 20 19 19 19 19 19 18 18 18 17 17 17 16 16
25 24 25 27 27 26 25 25 26 26 25 24 24 24 23 23 22 22 22 22 22 22 21 21 21 21 21 20 20 20 19 19 19 19 18 18 18 17 17 17 17 16 16 16
24 24 24 24 24 24 24 24 24 24 24 23 23 23 22 22 21 21 21 20 20 21 20 20 20 20 20 20 19 19 19 19 18 18 18 18 17 17 17 16 16 16 16 15
23 23 23 23 23 23 23 22 22 22 22 22 22 22 21 20 20 20 20 19 19 19 19 19 19 19 19 19 19 19 18 18 18 17 17 17 17 16 16 16 15 15 15 15
21 21 21 22 22 21 21 21 22 21 21 21 21 20 20 19 19 19 19 18 18 18 18 18 18 18 18 18 18 18 18 17 17 17 17 16 16 16 16 16 15 15 15 15
20 20 20 19 20 20 20 20 20 20 20 20 20 19 19 19 18 18 18 18 18 18 18 17 17 17 17 17 17 17 17 17 16 16 16 16 16 15 15 15 15 15 14 14
19 19 19 19 19 19 20 20 20 19 19 19 19 19 18 18 18 18 17 17 17 17 17 17 16 16 16 17 17 16 16 16 16 16 16 15 15 15 15 14 14 14 14 14
18 18 18 18 18 18 18 18 19 19 18 18 18 18 18 17 17 17 17 17 16 16 16 16 16 16 16 16 16 16 15 15 15 15 15 15 15 15 14 14 14 14 13 13
17 17 17 18 18 18 18 18 18 18 18 18 17 17 17 17 16 16 16 16 16 15 15 15 15 15 15 15 15 15 15 15 15 15 15 14 14 14 14 14 14 13 13 13
16 17 17 17 17 17 17 17 17 17 17 17 17 17 16 16 16 16 15 15 15 15 15 15 14 14 14 15 15 14 14 14 14 14 14 14 14 14 13 13 13 13 13 13
16 16 16 16 16 16 16 17 17 17 16 16 16 16 16 15 15 15 15 15 14 14 14 14 14 14 14 14 14 14 14 14 14 13 13 13 13 13 13 13 12 12 12 12
15 15 15 15 15 15 16 16 16 16 16 16 15 15 15 15 15 14 14 14 14 14 13 13 13 14 13 13 13 13 13 13 13 13 13 13 13 13 12 12 12 12 12 11
14 14 15 14 15 15 15 15 15 15 15 15 15 14 14 14 14 13 13 13 13 13 13 13 13 13 13 13 13 13 13 12 12 12 12 12 12 12 12 12 12 11 11 11
14 14 14 14 14 14 14 14 14 14 14 14 14 13 13 13 13 13 13 13 13 12 12 12 12 12 12 12 12 12 12 12 12 12 11 11 11 11 11 11 11 11 11 11
13 13 13 13 13 13 13 13 13 13 13 13 13 12 12 12 12 12 12 12 12 12 12 12 12 12 12 12 12 12 12 12 11 11 11 11 11 11 11 11 10 10 10 10
12 12 12 12 12 12 12 12 12 12 12 12 12 12 12 12 12 12 12 11 11 11 11 11 11 11 11 11 11 11 11 11 11 11 11 11 10 10 10 10 10 9 9 9
11 11 11 11 11 11 11 11 11 11 11 11 11 11 11 11 11 11 11 11 11 11 11 11 10 11 11 11 11 11 11 11 11 10 10 10 10 10 9 9 9 9 9 8
10 10 10 10 10 11 10 11 11 11 11 11 11 11 11 10 10 10 10 10 10 10 10 10 10 10 10 10 10 10 10 10 10 10 10 9 9 9 9 8 8 8 8 8
10 10 10 10 10 10 10 10 10 10 10 10 10 10 10 10 10 10 10 10 10 10 10 10 10 10 10 10 9 9 9 9 9 9 9 9 8 8 8 8 7 7 7 7
9 9 10 9 10 10 10 10 10 10 10 10 10 10 10 10 9 9 9 9 9 9 9 9 9 9 9 9 9 9 8 8 8 8 8 8 7 7 7 7 7 6 6 6
9 9 9 9 10 10 10 10 10 10 10 10 10 9 9 9 9 9 9 9 9 9 9 9 9 9 9 8 8 8 8 8 8 7 7 7 7 7 6 6 6 6 5 5
Wind_Speed
19 19 17 15 15 17 18 16 15 12 9 6 3 2 4 5 5 5 6 8 9 8 7 7 8 8 8 8 9 8 8 8 8 7 6 6 5 5 4 4 4 3 3 2
17 20 20 18 16 16 17 15 16 15 10 4 5 4 4 3 4 4 5 6 8 8 8 8 7 7 7 7 8 7 8 8 7 7 7 6 6 5 5 4 3 3 3 3
15 17 19 20 17 17 15 15 15 13 7 4 4 4 5 3 3 3 3 4 6 6 7 7 7 6 6 6 7 7 7 7 8 8 7 7 7 6 6 4 3 3 3 3
14 15 20 17 15 16 15 13 12 7 3 2 4 6 6 5 3 2 2 1 4 5 5 6 7 7 6 7 7 7 7 7 7 7 7 7 6 6 5 4 4 3 3 4
13 17 18 16 13 14 12 9 8 4 3 3 5 7 6 5 3 3 3 2 1 3 4 4 4 5 7 7 6 6 6 6 6 7 7 7 6 6 5 4 4 3 3 3
14 16 17 12 11 11 9 8 3 0 1 2 4 2 4 4 5 5 6 4 3 2 3 3 3 3 6 7 7 6 6 6 6 6 6 7 6 6 5 4 4 4 3 3
18 18 14 8 9 10 9 3 3 2 2 3 5 5 6 7 7 6 5 4 4 4 4 3 3 3 4 5 5 4 4 4 5 6 5 5 5 5 5 5 5 4 4 3
16 18 11 6 5 3 2 4 5 6 6 8 8 7 7 7 7 7 6 6 6 5 5 4 3 3 3 3 3 3 3 3 3 3 4 5 5 4 4 5 5 5 4 4
5 5 2 5 5 5 5 6 7 6 7 7 7 7 7 7 7 7 6 6 6 5 5 4 4 3 3 2 3 3 3 4 4 3 2 4 5 5 4 4 4 5 5 4
3 1 2 3 4 6 7 7 7 7 7 7 6 7 7 6 6 6 6 6 5 5 4 4 4 3 2 2 2 3 3 4 4 4 4 4 3 3 4 4 4 4 4 4
3 2 4 3 3 4 5 6 6 6 6 6 6 6 5 5 5 4 5 5 4 4 3 3 3 3 2 2 2 2 2 2 3 4 5 4 3 2 2 1 1 2 2 2
3 3 3 1 4 3 3 4 4 5 5 6 5 5 4 4 3 3 3 4 4 4 4 4 3 3 3 3 2 2 2 2 2 3 4 4 4 3 6 4 5 5 3 3
5 4 3 2 4 5 4 3 4 4 5 5 5 4 3 3 2 2 3 3 3 3 3 3 2 2 2 2 2 1 1 1 1 2 2 3 3 3 3 2 4 4 4 5
6 5 5 4 3 4 4 4 4 3 4 4 3 3 3 3 2 2 2 2 3 3 3 3 3 2 2 1 1 1 0 1 2 2 2 3 2 2 3 4 3 2 2 3
4 5 5 5 4 4 3 3 3 3 3 2 3 3 2 2 2 2 3 3 2 3 3 3 3 2 2 1 1 1 0 0 0 0 1 1 2 2 2 3 3 3 3 3
5 5 5 4 5 6 5 4 4 4 3 3 2 3 2 2 2 2 2 2 2 2 3 3 3 3 2 1 1 1 1 1 1 1 1 1 2 2 2 2 2 3 3 3
5 5 5 5 6 6 6 5 5 4 3 3 3 2 1 1 2 2 2 2 2 2 2 2 2 2 2 2 1 0 0 1 1 1 1 1 1 2 2 2 1 1 1 3
4 5 6 5 6 6 6 6 5 5 4 4 3 2 1 2 2 2 2 2 1 1 1 1 1 1 0 0 1 0 0 0 0 0 0 1 0 1 1 1 2 2 2 2
6 6 5 5 5 5 5 6 6 5 4 3 3 2 1 2 2 2 2 2 1 0 1 2 2 1 0 1 1 0 1 0 0 0 0 0 1 1 1 1 1 2 2 2
6 5 5 5 6 5 5 5 5 4 3 2 3 2 1 1 1 2 2 2 2 2 2 2 1 1 1 1 1 1 1 1 1 1 1 1 1 1 1 1 1 2 2 2
7 6 5 5 5 4 4 5 4 4 3 1 1 0 0 1 1 1 1 2 2 3 2 2 1 2 2 1 1 1 1 1 1 1 1 1 1 1 1 2 2 2 2 2
6 6 5 5 5 5 4 3 3 3 2 2 2 1 1 1 1 2 3 2 3 3 2 2 2 3 3 2 1 0 1 1 1 2 2 2 2 2 2 2 3 3 3 3
6 5 5 4 4 3 2 2 2 2 3 3 3 3 3 3 2 2 2 3 4 4 4 3 4 5 4 2 2 2 3 3 3 3 3 4 4 4 3 3 3 3 3 3
4 3 3 2 1 1 2 2 3 4 4 4 4 4 3 3 3 3 4 6 6 5 5 5 7 7 4 3 4 5 5 5 5 5 5 4 4 4 4 3 3 3 3 4
2 2 2 1 1 1 2 2 3 3 4 4 4 4 3 3 4 4 4 5 5 5 5 6 6 6 5 5 6 6 7 7 7 6 6 6 5 5 5 5 5 5 5 5
2 2 2 2 2 2 2 3 3 3 3 3 3 3 3 4 5 5 4 5 6 5 5 5 5 5 5 6 7 7 7 7 7 7 7 7 7 7 6 5 7 6 5 5
3 3 2 2 2 3 3 3 3 3 3 3 4 4 4 5 5 5 6 5 5 6 6 6 6 6 6 7 7 7 6 6 6 6 6 6 6 6 6 7 6 6 6 7
Wind_Direction
264 269 265 251 243 236 236 243 253 257 242 192 168 161 128 131 136 147 153 147 145 156 153 151 152 159 168 170 169 170 170 174 175 176 173 174 178 170 167 181 185 169 178 177
262 263 265 260 254 250 244 243 247 251 254 188 164 139 124 124 149 147 146 156 156 155 155 158 159 167 172 170 166 163 169 175 171 172 172 172 170 164 167 175 171 168 169 147
263 259 262 256 251 252 251 248 249 251 248 193 158 130 115 106 104 114 143 156 156 160 164 164 169 170 172 167 166 169 172 173 172 173 171 168 174 169 171 172 168 160 153 135
262 264 254 255 260 259 257 255 252 244 201 161 114 99 86 71 64 93 100 125 157 169 169 171 175 178 173 171 170 172 175 175 172 171 170 167 168 164 161 161 164 161 157 150
255 253 252 257 261 264 257 255 264 246 197 160 115 110 92 67 54 54 65 58 96 159 166 163 171 173 168 169 165 169 176 178 172 172 169 168 171 165 159 159 162 168 157 150
248 253 253 252 266 274 263 245 272 311 112 132 139 176 110 80 60 46 41 44 60 90 111 125 137 153 162 166 167 176 179 176 169 167 172 173 170 165 162 163 168 162 151 149
240 249 256 277 286 279 252 253 29 61 62 69 60 66 79 70 65 58 54 43 61 74 75 76 95 124 144 152 162 162 157 159 165 167 172 167 163 162 159 166 166 161 157 156
234 244 247 338 309 304 33 42 50 65 61 63 71 77 80 71 63 55 49 50 54 62 65 59 68 95 124 132 131 136 143 141 145 160 176 168 158 160 167 170 170 172 174 174
248 255 37 27 44 36 49 58 56 66 69 70 71 73 70 63 59 53 48 48 51 59 66 58 62 77 109 119 126 142 154 154 156 156 156 147 154 163 170 177 188 190 187 187
277 281 19 28 50 37 40 56 64 55 55 54 55 62 63 57 56 55 48 44 52 54 56 53 50 51 72 95 118 143 157 158 162 159 144 137 145 163 171 187 205 202 192 188
275 311 4 1 40 57 40 50 64 65 58 52 55 56 57 61 58 56 51 40 41 49 51 44 38 42 45 72 107 126 148 157 169 162 147 140 133 106 157 145 190 210 207 189
285 321 313 352 359 33 45 40 46 52 54 50 47 45 47 56 55 53 56 47 39 32 33 29 26 31 34 43 71 104 139 156 174 164 156 156 149 122 63 81 74 70 71 96
312 323 330 343 352 6 19 16 34 48 45 41 36 39 35 42 52 39 50 42 38 31 30 23 20 25 32 67 81 104 160 173 191 172 154 155 161 165 158 113 79 68 79 98
339 338 316 328 357 360 360 6 11 23 26 21 13 26 25 26 30 23 29 26 16 6 15 23 17 14 19 67 95 103 150 179 190 188 175 169 174 181 178 175 166 151 138 153
316 311 309 322 340 332 329 332 321 322 340 358 359 7 8 24 22 1 6 19 16 350 2 23 16 5 13 39 93 100 174 199 207 194 185 181 179 185 190 182 169 159 151 161
299 296 302 313 313 306 307 302 297 303 320 326 341 349 4 21 16 352 347 358 354 352 17 24 359 343 2 16 102 142 160 165 192 196 197 200 191 194 193 177 167 169 171 160
285 293 299 300 300 299 293 290 288 294 296 297 305 305 326 328 329 339 333 343 26 34 28 15 357 359 15 26 17 14 43 140 178 194 208 215 199 189 177 172 177 182 163 142
304 299 297 296 296 301 309 313 308 309 301 296 299 287 298 311 313 308 312 324 334 49 61 55 26 7 356 41 43 90 111 299 305 296 102 111 123 141 143 158 168 160 157 145
287 280 287 288 287 296 301 303 298 299 307 302 299 302 311 324 327 313 302 304 313 30 39 61 23 349 18 66 20 193 167 149 142 133 51 134 199 222 213 187 173 161 147 138
298 287 279 281 285 290 303 305 303 301 296 296 294 313 340 334 333 332 335 348 19 37 59 51 47 30 25 72 360 249 172 171 167 165 182 217 203 144 128 121 123 122 121 125
315 306 302 299 304 305 305 308 309 312 331 353 320 282 6 333 330 347 36 23 40 43 61 76 52 48 39 9 278 245 192 184 168 145 149 132 104 94 84 80 86 96 97 100
311 313 312 312 311 307 309 324 322 320 344 357 358 18 47 24 48 64 57 51 61 54 65 71 52 37 13 337 289 174 110 118 131 123 116 106 103 102 92 89 87 81 75 73
305 308 309 308 309 315 340 353 354 16 24 31 41 50 52 47 50 64 64 59 72 68 65 56 35 33 23 34 57 74 77 78 75 78 84 89 90 88 85 81 79 76 66 62
305 305 307 303 315 8 40 35 42 56 62 64 64 65 68 73 70 68 70 79 71 77 74 64 58 51 48 58 64 68 69 70 69 70 75 79 84 87 86 82 78 72 70 71
347 2 12 2 30 64 71 76 80 82 83 82 78 72 68 68 81 81 78 80 84 84 90 83 75 68 63 65 66 63 64 63 64 68 69 68 69 72 69 67 63 61 62 63
42 48 56 55 57 61 76 81 80 86 92 94 90 83 82 82 88 94 97 96 94 94 91 92 90 84 75 72 71 71 74 74 72 68 67 69 67 66 65 65 70 68 65 61
60 67 67 62 65 64 71 83 85 80 80 89 93 95 94 89 87 94 97 94 93 93 88 84 81 79 78 76 74 72 73 75 74 74 74 74 73 72 71 68 66 66 64 62
Height
1476 1469 1466 1467 1468 1467 1472 1474 1481 1479 1478 1475 1475 1476 1478 1482 1484 1487 1490 1493 1495 1500 1503 1506 1508 1511 1513 1515 1517 1519 1520 1522 1524 1524 1526 1527 1528 1529 1530 1530 1531 1531 1531 1531
1481 1471 1466 1467 1464 1465 1466 1466 1469 1472 1474 1469 1473 1476 1480 1482 1485 1487 1490 1493 1495 1497 1501 1504 1507 1509 1511 1513 1515 1517 1518 1520 1522 1523 1524 1525 1526 1527 1528 1528 1529 1529 1529 1530
1488 1475 1472 1476 1466 1464 1463 1461 1464 1471 1470 1469 1472 1475 1479 1483 1485 1487 1490 1493 1495 1497 1500 1502 1505 1507 1509 1511 1513 1515 1516 1518 1520 1521 1522 1523 1524 1525 1526 1527 1527 1527 1528 1528
1489 1486 1495 1472 1456 1456 1458 1459 1459 1462 1465 1469 1473 1477 1481 1483 1486 1488 1490 1492 1494 1496 1499 1501 1503 1505 1507 1509 1511 1513 1515 1516 1518 1519 1520 1521 1522 1523 1524 1525 1525 1526 1526 1526
1490 1490 1482 1467 1459 1459 1462 1464 1460 1462 1465 1469 1474 1478 1483 1485 1487 1488 1489 1491 1493 1495 1497 1499 1501 1503 1505 1507 1509 1511 1513 1514 1515 1517 1518 1518 1519 1520 1521 1522 1523 1523 1524 1524
1489 1493 1490 1471 1460 1458 1460 1469 1463 1465 1467 1470 1474 1479 1486 1486 1487 1488 1490 1491 1492 1494 1495 1497 1498 1500 1503 1505 1507 1508 1510 1511 1512 1514 1515 1515 1516 1517 1518 1519 1520 1521 1521 1522
1487 1487 1477 1465 1461 1460 1474 1477 1468 1468 1470 1473 1477 1481 1485 1487 1488 1489 1491 1492 1492 1493 1494 1495 1496 1498 1500 1502 1504 1505 1507 1508 1510 1511 1512 1513 1514 1515 1516 1517 1518 1519 1519 1520
1480 1485 1482 1469 1466 1470 1474 1472 1472 1472 1475 1477 1479 1483 1486 1488 1489 1491 1492 1492 1492 1492 1493 1494 1495 1496 1499 1500 1502 1504 1505 1506 1507 1508 1510 1511 1512 1513 1514 1515 1516 1517 1517 1517
1475 1479 1475 1473 1473 1474 1473 1474 1475 1476 1478 1481 1482 1485 1487 1488 1489 1490 1491 1492 1492 1492 1493 1494 1495 1496 1497 1499 1500 1502 1503 1503 1504 1506 1507 1508 1509 1510 1511 1513 1514 1514 1515 1515
1476 1475 1475 1476 1476 1476 1477 1477 1478 1480 1481 1483 1485 1487 1488 1490 1491 1492 1492 1493 1493 1493 1493 1493 1494 1495 1496 1497 1498 1499 1501 1501 1503 1503 1504 1505 1507 1508 1509 1511 1512 1512 1513 1513
1477 1477 1477 1478 1479 1479 1479 1479 1481 1483 1484 1486 1487 1488 1489 1491 1492 1493 1493 1493 1493 1493 1493 1493 1494 1494 1495 1495 1496 1497 1498 1500 1501 1502 1502 1503 1504 1505 1506 1508 1508 1509 1510 1511
1482 1482 1482 1482 1482 1482 1482 1483 1484 1485 1486 1488 1489 1489 1490 1491 1492 1493 1493 1493 1493 1492 1492 1493 1493 1493 1493 1493 1494 1495 1496 1498 1499 1499 1500 1501 1502 1502 1503 1505 1505 1506 1507 1508
1484 1484 1483 1481 1483 1483 1484 1485 1486 1486 1487 1488 1489 1490 1491 1491 1492 1492 1492 1492 1492 1492 1492 1492 1491 1492 1492 1492 1492 1493 1494 1495 1496 1497 1498 1498 1499 1500 1501 1502 1502 1503 1504 1504
1484 1485 1484 1483 1483 1485 1486 1486 1487 1487 1488 1488 1489 1490 1491 1491 1491 1491 1491 1491 1491 1491 1490 1490 1490 1490 1490 1490 1490 1491 1491 1492 1493 1494 1495 1496 1497 1497 1498 1499 1499 1499 1501 1501
1486 1486 1486 1485 1484 1486 1486 1486 1487 1487 1488 1488 1489 1489 1489 1490 1490 1491 1490 1489 1490 1490 1488 1487 1488 1488 1488 1488 1488 1489 1490 1491 1491 1492 1493 1493 1494 1495 1496 1497 1497 1497 1498 1499
1484 1485 1485 1485 1486 1486 1485 1486 1486 1487 1487 1487 1488 1488 1488 1488 1489 1489 1489 1487 1488 1488 1486 1486 1487 1486 1486 1485 1485 1487 1488 1488 1489 1490 1491 1491 1492 1493 1494 1495 1495 1495 1496 1496
1484 1484 1484 1485 1485 1485 1485 1485 1485 1485 1485 1486 1486 1487 1487 1487 1487 1488 1487 1487 1487 1486 1486 1485 1485 1485 1484 1483 1484 1485 1486 1487 1487 1487 1488 1490 1490 1491 1492 1492 1493 1493 1494 1494
1483 1483 1483 1484 1484 1484 1484 1483 1483 1484 1484 1484 1484 1484 1484 1485 1485 1485 1486 1485 1485 1484 1484 1484 1484 1484 1483 1483 1483 1484 1485 1486 1486 1487 1487 1488 1488 1489 1489 1490 1491 1491 1492 1493
1483 1483 1482 1483 1483 1483 1483 1483 1483 1482 1482 1482 1482 1482 1482 1483 1483 1483 1483 1483 1482 1482 1482 1482 1482 1482 1482 1481 1482 1483 1484 1484 1485 1485 1485 1485 1486 1487 1488 1488 1489 1490 1490 1491
1481 1481 1481 1482 1482 1481 1481 1481 1481 1480 1480 1480 1480 1480 1480 1480 1480 1480 1481 1481 1480 1480 1480 1480 1480 1480 1480 1481 1481 1482 1482 1483 1483 1484 1484 1485 1485 1486 1486 1487 1488 1488 1489 1489
1480 1480 1479 1479 1479 1479 1479 1479 1479 1479 1478 1478 1478 1477 1477 1478 1478 1478 1478 1479 1479 1478 1478 1478 1479 1479 1479 1480 1480 1481 1481 1482 1482 1483 1483 1484 1484 1484 1485 1486 1486 1487 1487 1487
1478 1478 1477 1477 1477 1477 1477 1476 1476 1476 1476 1476 1476 1475 1475 1475 1476 1476 1476 1477 1477 1477 1477 1478 1478 1478 1478 1479 1480 1480 1480 1481 1481 1481 1482 1482 1483 1483 1484 1484 1485 1485 1485 1486
1476 1476 1475 1475 1475 1474 1474 1474 1474 1474 1474 1474 1474 1474 1474 1474 1474 1475 1475 1475 1476 1476 1476 1477 1477 1477 1478 1478 1479 1479 1480 1480 1480 1481 1481 1481 1482 1482 1483 1483 1484 1484 1484 1485
1474 1474 1474 1473 1473 1473 1473 1473 1473 1473 1473 1473 1474 1474 1474 1474 1474 1475 1474 1474 1475 1476 1476 1477 1478 1478 1478 1479 1479 1480 1480 1480 1480 1480 1481 1481 1481 1482 1482 1483 1483 1484 1484 1484
1473 1473 1473 1473 1473 1473 1473 1473 1473 1474 1474 1474 1474 1475 1475 1475 1475 1476 1476 1476 1476 1477 1478 1478 1479 1479 1480 1480 1480 1480 1481 1481 1481 1481 1481 1481 1481 1482 1482 1483 1483 1483 1483 1483
1473 1473 1473 1472 1473 1473 1473 1474 1474 1475 1475 1475 1476 1476 1476 1476 1477 1477 1477 1478 1478 1479 1479 1480 1480 1481 1481 1481 1481 1481 1482 1482 1482 1482 1482 1482 1482 1482 1483 1483 1483 1483 1483 1483
1474 1474 1474 1474 1474 1474 1475 1475 1476 1476 1477 1477 1478 1478 1478 1479 1479 1480 1480 1481 1481 1482 1482 1482 1483 1483 1483 1483 1483 1484 1484 1484 1484 1484 1484 1484 1484 1484 1484 1484 1483 1483 1483 1483